This is the latest recevied weather packets stored in our database for station/object IZ0VWB-3. If no packets are shown the sender has not sent any weather packets the latest 10 day(s).
| Time | Temp. | Humidity | Pressure | Rain* | Wind** | Luminosity | Snow |
|---|---|---|---|---|---|---|---|
| 1777580302 | 10.56° C | 50% | 1007.7 hPa | 0 mm | - | - | - |
| 1777579703 | 11.11° C | 50% | 1007.7 hPa | 0 mm | - | - | - |
| 1777579103 | 11.11° C | 49% | 1007.6 hPa | 0 mm | - | - | - |
| 1777578504 | 11.11° C | 49% | 1007.5 hPa | 0 mm | - | - | - |
| 1777577903 | 11.67° C | 48% | 1007.5 hPa | 0 mm | - | - | - |
| 1777577304 | 11.67° C | 47% | 1007.4 hPa | 0 mm | - | - | - |
| 1777576703 | 11.67° C | 47% | 1007.3 hPa | 0 mm | - | - | - |
| 1777576102 | 11.67° C | 47% | 1007.2 hPa | 0 mm | - | - | - |
| 1777575504 | 12.22° C | 47% | 1007.2 hPa | 0 mm | - | - | - |
| 1777574902 | 12.22° C | 47% | 1007.1 hPa | 0 mm | - | - | - |
| 1777574303 | 12.78° C | 47% | 1007.1 hPa | 0 mm | - | - | - |
| 1777573703 | 12.78° C | 47% | 1006.9 hPa | 0 mm | - | - | - |
| 1777573104 | 13.33° C | 47% | 1006.7 hPa | 0 mm | - | - | - |
| 1777572502 | 13.33° C | 47% | 1006.6 hPa | 0 mm | - | - | - |
| 1777571903 | 13.89° C | 46% | 1006.4 hPa | 0 mm | - | - | - |
| 1777571303 | 14.44° C | 46% | 1006.2 hPa | 0 mm | - | - | - |
| 1777570701 | 14.44° C | 45% | 1006.2 hPa | 0 mm | - | - | - |
| 1777570102 | 15° C | 45% | 1006.1 hPa | 0 mm | - | - | - |
| 1777569503 | 15.56° C | 45% | 1006 hPa | 0 mm | - | - | - |
| 1777568897 | 15.56° C | 45% | 1005.9 hPa | 0 mm | - | - | - |
| 1777568297 | 16.11° C | 45% | 1005.9 hPa | 0 mm | - | - | - |
| 1777567697 | 16.11° C | 44% | 1005.7 hPa | 0 mm | - | - | - |
| 1777567098 | 16.67° C | 44% | 1005.8 hPa | 0 mm | - | - | - |
| 1777566496 | 17.22° C | 45% | 1005.6 hPa | 0 mm | - | - | - |
| 1777565898 | 17.22° C | 44% | 1005.6 hPa | 0 mm | - | - | - |
* Rain latest hour (hover to see other rain measurements)
** Current wind speed in m/s (hover to see current wind gust speed)